Location,LocationNum,Date,Time,C 0.3-0.5um,C 0.5-0.7um,C 0.7-1.0um,C 1.0-2.0um,C 2.0-5.0um,C >5.0um,Temperature,Humidity,Flags,Liters
Label 1   ,1,03/10/08,18:08:23,163556,11715,2398,1409,620,28,16,67,0,2.832
Label 1   ,2,03/10/08,18:10:23,143253,9078,1891,1224,510,22,17,67,0,2.832
Label 1   ,3,03/10/08,18:12:23,141142,8419,1751,1107,504,18,16,67,0,2.832
Label 1   ,4,03/10/08,18:14:23,142548,8643,1679,1083,464,24,16,68,0,2.832
Label 1   ,5,03/10/08,18:16:23,133945,7580,1465,940,407,14,16,69,0,2.832
Label 1   ,6,03/10/08,18:18:23,134356,7380,1377,885,370,10,16,69,0,2.832
Label 1   ,7,03/10/08,18:20:23,136573,7434,1467,936,379,9.5,16,68,0,2.832
Label 1   ,8,03/10/08,18:22:23,149102,8331,1557,980,429,17,16,69,0,2.832
Label 1   ,9,03/10/08,18:24:24,154762,8959,1681,1046,450,12,16,69,0,2.832
Label 1   ,10,03/10/08,18:26:24,160557,9356,1789,1166,485,19,16,69,0,2.832
Label 1   ,11,03/10/08,18:28:24,167002,10127,1979,1279,555,21,16,69,0,2.832
Label 1   ,12,03/10/08,18:30:24,168872,10370,2021,1261,554,22,16,69,0,2.832
Label 1   ,13,03/10/08,18:32:24,168999,10348,1956,1258,517,17,17,68,0,2.832
Label 1   ,14,03/10/08,18:34:24,165706,9680,1807,1145,488,15,16,69,0,2.832
Label 1   ,15,03/10/08,18:36:24,164841,9503,1751,1117,482,18,16,69,0,2.832
Label 1   ,16,03/10/08,18:38:24,166961,9740,1784,1111,491,17,15,69,0,2.832
Label 1   ,17,03/10/08,18:40:24,172346,10282,1807,1118,487,23,14,69,0,2.832
Label 1   ,18,03/10/08,18:42:25,174429,10380,1822,1123,494,26,14,69,0,2.832
Label 1   ,19,03/10/08,18:44:25,171857,10123,1788,1113,458,17,14,69,0,2.832
Label 1   ,20,03/10/08,18:46:25,170852,10071,1805,1054,451,20,15,69,0,2.832
Label 1   ,21,03/10/08,18:48:25,172851,10385,1785,1085,447,18,14,70,0,2.832
Label 1   ,22,03/10/08,18:50:25,180431,11125,1844,1067,452,18,13,69,0,2.832
Label 1   ,23,03/10/08,18:52:25,174601,10520,1774,1020,444,17,13,70,0,2.832
Label 1   ,24,03/10/08,18:54:25,178723,10722,1921,1099,477,18,14,70,0,2.832
Label 1   ,25,03/10/08,18:56:25,177145,10815,1895,1098,484,23,13,71,0,2.832
Label 1   ,26,03/10/08,18:58:25,180882,11301,1937,1088,473,24,13,71,0,2.832
Label 1   ,27,03/10/08,19:00:26,175217,10319,1742,986,417,20,13,70,0,2.832
Label 1   ,28,03/10/08,19:02:26,172861,10140,1770,1083,478,23,15,71,0,2.832
Label 1   ,29,03/10/08,19:04:26,180950,11362,1872,1069,452,23,14,71,0,2.832
Label 1   ,30,03/10/08,19:06:26,178752,10854,1823,1053,470,21,13,71,0,2.832
Label 1   ,31,03/10/08,19:08:26,177153,10433,1757,1079,464,19,14,72,0,2.832
Label 1   ,32,03/10/08,19:10:26,177036,10750,1788,1048,433,22,13,71,0,2.832
Label 1   ,33,03/10/08,19:12:26,180601,11133,1855,1089,456,20,13,72,0,2.832
Label 1   ,34,03/10/08,19:14:26,176192,10552,1729,1066,439,15,13,72,0,2.832
Label 1   ,35,03/10/08,19:16:26,179184,10861,1849,1036,444,25,14,72,0,2.832
Label 1   ,36,03/10/08,19:18:27,170693,9893,1745,1047,451,20,14,73,0,2.832
Label 1   ,37,03/10/08,19:20:27,171840,9929,1727,1023,415,22,14,73,0,2.832
Label 1   ,38,03/10/08,19:22:27,175462,10266,1806,1046,422,13,13,73,0,2.832
Label 1   ,39,03/10/08,19:24:27,181997,11130,1873,1128,471,18,12,72,0,2.832
Label 1   ,40,03/10/08,19:26:27,181873,11257,1906,1057,438,15,14,73,0,2.832
Label 1   ,41,03/10/08,19:28:27,170746,9702,1743,1006,415,18,14,73,0,2.832
Label 1   ,42,03/10/08,19:30:27,163227,8879,1566,988,395,15,15,74,0,2.832
Label 1   ,43,03/10/08,19:32:27,169021,9559,1699,975,415,13,14,74,0,2.832
Label 1   ,44,03/10/08,19:34:27,163483,8795,1561,960,391,15,14,74,0,2.832
Label 1   ,45,03/10/08,19:36:28,164113,8768,1522,924,400,14,15,74,0,2.832
Label 1   ,46,03/10/08,19:38:28,164173,8775,1568,956,418,13,14,74,0,2.832
Label 1   ,47,03/10/08,19:40:28,165024,8897,1540,940,420,8.1,14,74,0,2.832
Label 1   ,48,03/10/08,19:42:28,165220,8894,1500,926,389,8.8,14,75,0,2.832
Label 1   ,49,03/10/08,19:44:28,172382,9597,1581,952,397,9.9,13,74,0,2.832
Label 1   ,50,03/10/08,19:46:28,171975,9503,1577,957,399,13,14,74,0,2.832
Label 1   ,51,03/10/08,19:48:28,169633,9087,1531,952,418,5.3,14,74,0,2.832
Label 1   ,52,03/10/08,19:50:28,167306,9159,1546,930,372,8.8,14,74,0,2.832
Label 1   ,53,03/10/08,19:52:29,167221,8854,1506,879,369,10,14,75,0,2.832
Label 1   ,54,03/10/08,19:54:29,164594,8808,1425,825,343,16,14,75,0,2.832
Label 1   ,55,03/10/08,19:56:29,160842,8409,1345,784,312,7.1,15,75,0,2.832
Label 1   ,56,03/10/08,19:58:29,164478,8611,1413,811,325,9.5,14,76,0,2.832
Label 1   ,57,03/10/08,20:00:29,166712,8952,1397,796,333,8.8,14,75,0,2.832
Label 1   ,58,03/10/08,20:02:29,167701,9024,1432,823,350,14,13,75,0,2.832
Label 1   ,59,03/10/08,20:04:29,176160,10179,1528,848,358,11,13,76,0,2.832
Label 1   ,60,03/10/08,20:06:29,167127,8870,1339,789,351,15,13,75,0,2.832
Label 1   ,61,03/10/08,20:08:29,170505,9177,1463,826,350,17,13,76,0,2.832
Label 1   ,62,03/10/08,20:10:30,169978,9151,1445,826,349,14,13,76,0,2.832
Label 1   ,63,03/10/08,20:12:30,180139,10561,1612,871,412,15,12,76,0,2.832
Label 1   ,64,03/10/08,20:14:30,181800,10655,1586,885,401,16,12,76,0,2.832
Label 1   ,65,03/10/08,20:16:30,187771,12375,1804,934,433,22,12,76,0,2.832
Label 1   ,66,03/10/08,20:18:30,183371,11328,1729,1022,565,53,13,77,0,2.832
Label 1   ,67,03/10/08,20:20:30,187690,11876,1801,982,538,41,13,77,0,2.832
Label 1   ,68,03/10/08,20:22:30,170706,9596,1500,870,441,25,13,76,0,2.832
Label 1   ,69,03/10/08,20:24:30,183423,12567,1849,928,414,20,12,76,0,2.832
Label 1   ,70,03/10/08,20:26:30,192933,13891,1955,1009,477,22,11,76,0,2.832
Label 1   ,71,03/10/08,20:28:31,179273,10798,1591,914,434,27,12,76,0,2.832
Label 1   ,72,03/10/08,20:30:31,183968,12319,1842,936,457,21,13,76,0,2.832
Label 1   ,73,03/10/08,20:32:31,183766,11402,1721,963,431,19,12,77,0,2.832
Label 1   ,74,03/10/08,20:34:31,172810,10330,1584,905,397,14,12,75,0,2.832
Label 1   ,75,03/10/08,20:36:31,179864,12029,1784,932,398,14,12,74,0,2.832
Label 1   ,76,03/10/08,20:38:31,191064,13541,1977,958,433,16,11,76,0,2.832
Label 1   ,77,03/10/08,20:40:31,195491,15055,2212,1061,456,21,11,75,0,2.832
Label 1   ,78,03/10/08,20:42:31,197034,14190,2043,1020,465,14,11,77,0,2.832
Label 1   ,79,03/10/08,20:44:32,194582,13099,1908,949,417,18,12,77,0,2.832
Label 1   ,80,03/10/08,20:46:32,195320,13600,1934,952,402,13,12,77,0,2.832
Label 1   ,81,03/10/08,20:48:32,194245,13336,1837,974,393,13,12,78,0,2.832
Label 1   ,82,03/10/08,20:50:32,192199,12784,1810,958,394,13,12,78,0,2.832
Label 1   ,83,03/10/08,20:52:32,192441,12734,1877,948,399,14,12,78,0,2.832
Label 1   ,84,03/10/08,20:54:32,193178,13171,1852,936,372,12,12,78,0,2.832
Label 1   ,85,03/10/08,20:56:32,194146,13660,1952,960,386,12,12,77,0,2.832
Label 1   ,86,03/10/08,20:58:32,198164,14806,2101,986,385,11,11,77,0,2.832
Label 1   ,87,03/10/08,21:00:33,188948,14266,2170,990,338,12,12,77,0,2.832
Label 1   ,88,03/10/08,21:02:33,187133,11922,1676,865,353,9.5,12,77,0,2.832
Label 1   ,89,03/10/08,21:04:33,177860,10236,1553,838,331,11,12,77,0,2.832
Label 1   ,90,03/10/08,21:06:33,190937,12380,1786,914,372,12,12,77,0,2.832
Label 1   ,91,03/10/08,21:08:33,182133,10820,1588,895,335,14,12,77,0,2.832
Label 1   ,92,03/10/08,21:10:33,185780,11264,1644,877,363,9.2,13,78,0,2.832
Label 1   ,93,03/10/08,21:12:33,189715,11632,1731,942,342,11,13,78,0,2.832
Label 1   ,94,03/10/08,21:14:33,191499,12307,1817,942,375,9.9,13,78,0,2.832
Label 1   ,95,03/10/08,21:16:34,204536,15176,2166,1034,411,14,12,78,0,2.832
Label 1   ,96,03/10/08,21:18:34,195768,12881,1834,976,413,20,13,78,0,2.832
Label 1   ,97,03/10/08,21:20:34,188202,12042,1799,958,385,17,13,78,0,2.832
Label 1   ,98,03/10/08,21:22:34,182039,10607,1570,859,372,13,13,78,0,2.832
Label 1   ,99,03/10/08,21:24:34,189225,12445,1763,892,382,16,12,77,0,2.832
Label 1   ,100,03/10/08,21:26:34,191211,13274,1913,944,389,14,12,76,0,2.832
Label 1   ,101,03/10/08,21:28:34,193450,13457,1941,929,406,17,11,76,0,2.832
Label 1   ,102,03/10/08,21:30:34,187538,12094,1787,938,415,14,11,78,0,2.832
Label 1   ,103,03/10/08,21:32:34,189015,12253,1765,928,375,12,12,77,0,2.832
Label 1   ,104,03/10/08,21:34:35,196320,14929,2105,998,397,18,11,76,0,2.832
Label 1   ,105,03/10/08,21:36:35,213515,17618,2483,1118,429,13,11,77,0,2.832
Label 1   ,106,03/10/08,21:38:35,195180,12473,1818,944,373,17,13,77,0,2.832
Label 1   ,107,03/10/08,21:40:35,220241,17469,2433,1112,465,19,11,77,0,2.832
Label 1   ,108,03/10/08,21:42:35,216669,18761,2536,1101,443,23,11,76,0,2.832
Label 1   ,109,03/10/08,21:44:35,213021,19124,2745,1137,420,24,12,76,0,2.832
Label 1   ,110,03/10/08,21:46:35,209107,16921,2324,1067,434,17,12,77,0,2.832
Label 1   ,111,03/10/08,21:48:35,210736,17319,2371,1074,424,15,11,77,0,2.832
Label 1   ,112,03/10/08,21:50:36,209750,16989,2382,1073,403,15,11,77,0,2.832
Label 1   ,113,03/10/08,21:52:36,206247,17376,2475,1129,426,17,10,76,0,2.832
Label 1   ,114,03/10/08,21:54:36,190854,11679,1824,973,471,27,13,78,0,2.832
Label 1   ,115,03/10/08,21:56:36,198706,14081,2049,1046,467,34,11,77,0,2.832
Label 1   ,116,03/10/08,21:58:36,194979,13839,1997,998,453,31,12,76,0,2.832
Label 1   ,117,03/10/08,22:00:36,183560,10567,1660,929,397,14,13,79,0,2.832
Label 1   ,118,03/10/08,22:02:36,189148,11212,1698,882,428,21,12,78,0,2.832
Label 1   ,119,03/10/08,22:04:36,200195,15347,2176,1036,398,16,11,77,0,2.832
Label 1   ,120,03/10/08,22:06:36,197348,12998,1840,969,373,14,12,78,0,2.832
Label 1   ,121,03/10/08,22:08:37,177746,9980,1570,855,337,9.9,13,77,0,2.832
Label 1   ,122,03/10/08,22:10:37,196043,15181,2204,1036,403,23,12,76,0,2.832
Label 1   ,123,03/10/08,22:12:37,187561,12258,1832,921,390,18,12,76,0,2.832
Label 1   ,124,03/10/08,22:14:37,208579,18380,2614,1172,474,19,11,77,0,2.832
Label 1   ,125,03/10/08,22:16:37,218155,26710,4218,1613,539,18,10,76,0,2.832
Label 1   ,126,03/10/08,22:18:37,219505,20427,2817,1208,463,13,10,78,0,2.832
Label 1   ,127,03/10/08,22:20:37,222943,24198,3557,1431,476,19,10,77,0,2.832
Label 1   ,128,03/10/08,22:22:37,219991,23971,3553,1403,475,22,10,77,0,2.832
Label 1   ,129,03/10/08,22:24:37,222752,23062,3318,1372,458,15,10,78,0,2.832
Label 1   ,130,03/10/08,22:26:38,221918,20542,2841,1241,473,22,11,78,0,2.832
Label 1   ,131,03/10/08,22:28:38,194016,12983,1913,976,377,12,11,77,0,2.832
Label 1   ,132,03/10/08,22:30:38,206669,17000,2471,1115,427,17,11,78,0,2.832
Label 1   ,133,03/10/08,22:32:38,198290,13615,1943,981,405,17,12,78,0,2.832
Label 1   ,134,03/10/08,22:34:38,199241,13482,1919,954,433,16,12,80,0,2.832
Label 1   ,135,03/10/08,22:36:38,207303,17992,2532,1147,440,20,10,79,0,2.832
Label 1   ,136,03/10/08,22:38:38,214539,30147,4937,1793,490,20,10,76,0,2.832
Label 1   ,137,03/10/08,22:40:38,210326,30971,5381,1975,502,20,9,75,0,2.832
Label 1   ,138,03/10/08,22:42:38,216377,27724,4400,1654,510,16,9,76,0,2.832
Label 1   ,139,03/10/08,22:44:39,222482,29806,4792,1789,505,17,10,77,0,2.832
Label 1   ,140,03/10/08,22:46:39,214495,24465,3728,1355,443,13,10,78,0,2.832
Label 1   ,141,03/10/08,22:48:39,215545,26254,4068,1578,460,18,10,78,0,2.832
Label 1   ,142,03/10/08,22:50:39,224339,26931,4020,1538,493,14,10,78,0,2.832
Label 1   ,143,03/10/08,22:52:39,217094,30182,5209,1936,489,18,10,77,0,2.832
Label 1   ,144,03/10/08,22:54:39,219424,28678,4600,1763,496,17,10,77,0,2.832
Label 1   ,145,03/10/08,22:56:39,220960,34513,6090,2258,542,20,9,76,0,2.832
Label 1   ,146,03/10/08,22:58:39,215887,16674,2371,1151,430,15,11,79,0,2.832
Label 1   ,147,03/10/08,23:00:39,193635,12365,1847,950,362,7.4,13,80,0,2.832
Label 1   ,148,03/10/08,23:02:40,194666,12723,1845,927,363,8.8,13,79,0,2.832
Label 1   ,149,03/10/08,23:04:40,189633,11733,1666,883,357,6.4,13,80,0,2.832
Label 1   ,150,03/10/08,23:06:40,194580,12201,1760,889,370,8.8,12,79,0,2.832
Label 1   ,151,03/10/08,23:08:40,196036,12350,1775,941,388,8.8,12,79,0,2.832
Label 1   ,152,03/10/08,23:10:40,201349,13711,1913,912,362,14,12,79,0,2.832
Label 1   ,153,03/10/08,23:12:40,194192,12820,1883,899,361,9.9,12,78,0,2.832
Label 1   ,154,03/10/08,23:14:40,190982,12181,1790,910,355,8.5,11,79,0,2.832
Label 1   ,155,03/10/08,23:16:40,186219,11845,1791,892,361,11,12,79,0,2.832
Label 1   ,156,03/10/08,23:18:41,188749,12144,1776,870,354,12,12,78,0,2.832
Label 1   ,157,03/10/08,23:20:41,189945,12115,1754,898,342,12,12,79,0,2.832
Label 1   ,158,03/10/08,23:22:41,192471,12956,1881,891,361,17,12,79,0,2.832
Label 1   ,159,03/10/08,23:24:41,191868,12466,1772,931,383,19,12,79,0,2.832
Label 1   ,160,03/10/08,23:26:41,180893,10618,1578,822,326,12,12,79,0,2.832
Label 1   ,161,03/10/08,23:28:41,181728,11724,1691,832,335,14,12,78,0,2.832
Label 1   ,162,03/10/08,23:30:41,175971,11231,1749,821,326,17,11,76,0,2.832
Label 1   ,163,03/10/08,23:32:41,180232,11142,1620,814,338,9.9,11,77,0,2.832
Label 1   ,164,03/10/08,23:34:42,206216,23540,3487,1363,409,14,10,77,0,2.832
Label 1   ,165,03/10/08,23:36:42,183012,15639,2380,1016,319,13,10,76,0,2.832
Label 1   ,166,03/10/08,23:38:42,200806,21327,3168,1261,385,13,10,76,0,2.832
Label 1   ,167,03/10/08,23:40:42,202382,24660,3920,1568,466,16,9,75,0,2.832
Label 1   ,168,03/10/08,23:42:42,213326,24434,3752,1427,433,20,10,77,0,2.832
Label 1   ,169,03/10/08,23:44:42,198433,18737,2868,1249,407,14,10,76,0,2.832
Label 1   ,170,03/10/08,23:46:42,203456,17640,2605,1092,390,15,11,77,0,2.832
Label 1   ,171,03/10/08,23:48:42,213940,20038,2823,1161,434,12,10,78,0,2.832
Label 1   ,172,03/10/08,23:50:42,221260,26078,4022,1493,453,20,10,78,0,2.832
Label 1   ,173,03/10/08,23:52:43,203636,22620,3521,1431,473,16,9,76,0,2.832
Label 1   ,174,03/10/08,23:54:43,221006,30455,5263,2058,549,18,10,77,0,2.832
Label 1   ,175,03/10/08,23:56:43,225214,27971,4169,1621,487,16,10,78,0,2.832
Label 1   ,176,03/10/08,23:58:43,223699,30627,4980,1779,439,14,11,79,0,2.832
Label 1   ,177,03/10/09,00:00:43,215705,21157,2966,1237,428,12,11,80,0,2.832
Label 1   ,178,03/10/09,00:02:43,223892,38528,7054,2701,583,24,10,78,0,2.832
Label 1   ,179,03/10/09,00:04:43,226073,29752,4591,1629,482,20,11,79,0,2.832
Label 1   ,180,03/10/09,00:06:43,217451,30297,4965,1770,482,15,10,79,0,2.832
Label 1   ,181,03/10/09,00:08:43,208511,35772,6703,2487,522,20,9,76,0,2.832
Label 1   ,182,03/10/09,00:10:44,223391,36842,6863,2635,576,17,10,79,0,2.832
Label 1   ,183,03/10/09,00:12:44,211128,34722,6589,2447,571,18,9,77,0,2.832
Label 1   ,184,03/10/09,00:14:44,212481,25024,3871,1457,467,15,9,77,0,2.832
Label 1   ,185,03/10/09,00:16:44,218639,22872,3213,1258,434,13,10,79,0,2.832
Label 1   ,186,03/10/09,00:18:44,225182,27437,4161,1543,474,19,10,79,0,2.832
Label 1   ,187,03/10/09,00:20:44,223492,27428,4088,1587,476,10,10,78,0,2.832
Label 1   ,188,03/10/09,00:22:44,212771,21928,3186,1206,406,9.5,11,79,0,2.832
Label 1   ,189,03/10/09,00:24:44,204852,19225,2752,1132,400,7.8,11,79,0,2.832
Label 1   ,190,03/10/09,00:26:44,191084,13361,1834,878,341,6.4,12,81,0,2.832
Label 1   ,191,03/10/09,00:28:45,206139,18980,2640,1077,376,11,10,79,0,2.832
Label 1   ,192,03/10/09,00:30:45,200091,15381,2075,936,355,8.5,11,80,0,2.832
Label 1   ,193,03/10/09,00:32:45,183829,11433,1665,867,323,6.7,12,80,0,2.832
Label 1   ,194,03/10/09,00:34:45,182651,11716,1735,835,317,7.1,12,79,0,2.832
Label 1   ,195,03/10/09,00:36:45,188157,13630,1931,908,332,8.8,11,79,0,2.832
Label 1   ,196,03/10/09,00:38:45,181901,12357,1674,776,320,7.8,11,78,0,2.832
Label 1   ,197,03/10/09,00:40:45,165327,9615,1419,730,283,7.4,11,78,0,2.832
Label 1   ,198,03/10/09,00:42:45,173132,11336,1584,767,308,6.4,12,78,0,2.832
Label 1   ,199,03/10/09,00:44:46,173601,12452,1812,857,309,13,13,78,0,2.832
Label 1   ,200,03/10/09,00:46:46,180754,12691,1729,809,319,7.4,10,79,0,2.832
Label 1   ,201,03/10/09,00:48:46,186346,16820,2397,1004,358,7.1,9,77,0,2.832
Label 1   ,202,03/10/09,00:50:46,179483,12983,1838,851,306,6.4,11,78,0,2.832
Label 1   ,203,03/10/09,00:52:46,180205,11887,1676,798,298,9.2,11,79,0,2.832
Label 1   ,204,03/10/09,00:54:46,187060,16058,2208,929,364,16,10,78,0,2.832
Label 1   ,205,03/10/09,00:56:46,181625,13745,1860,846,327,9.5,10,79,0,2.832
Label 1   ,206,03/10/09,00:58:46,190890,20686,3099,1178,373,17,10,77,0,2.832
Label 1   ,207,03/10/09,01:00:46,193394,22292,3468,1344,386,14,9,76,0,2.832
Label 1   ,208,03/10/09,01:02:47,193886,22243,3395,1311,395,17,9,77,0,2.832
Label 1   ,209,03/10/09,01:04:47,199693,21890,3180,1231,430,13,9,78,0,2.832
Label 1   ,210,03/10/09,01:06:47,201279,22208,3288,1232,431,30,9,79,0,2.832
Label 1   ,211,03/10/09,01:08:47,194177,16709,2292,984,437,18,10,79,0,2.832
Label 1   ,212,03/10/09,01:10:47,182222,15663,2247,929,380,15,11,78,0,2.832
Label 1   ,213,03/10/09,01:12:47,170101,12890,1932,866,361,22,11,77,0,2.832
Label 1   ,214,03/10/09,01:14:47,172396,14354,2069,874,356,9.5,11,77,0,2.832
Label 1   ,215,03/10/09,01:16:47,190799,20481,3013,1166,400,18,10,78,0,2.832
Label 1   ,216,03/10/09,01:18:48,162589,13160,2102,936,321,11,10,76,0,2.832
Label 1   ,217,03/10/09,01:20:48,189944,17183,2357,937,356,13,10,78,0,2.832
Label 1   ,218,03/10/09,01:22:48,169194,19084,3340,1334,348,17,9,75,0,2.832
Label 1   ,219,03/10/09,01:24:48,151459,9511,1370,676,285,11,10,75,0,2.832
Label 1   ,220,03/10/09,01:26:48,159487,9963,1468,707,294,12,10,76,0,2.832
Label 1   ,221,03/10/09,01:28:48,178182,18565,2814,1094,353,11,9,76,0,2.832
Label 1   ,222,03/10/09,01:30:48,185109,26532,4862,1833,489,17,9,76,0,2.832
Label 1   ,223,03/10/09,01:32:48,193459,22433,3580,1407,429,16,10,78,0,2.832
Label 1   ,224,03/10/09,01:34:48,195862,19606,2833,1121,409,9.5,10,79,0,2.832
Label 1   ,225,03/10/09,01:36:49,181232,13539,1894,831,323,9.2,11,80,0,2.832
Label 1   ,226,03/10/09,01:38:49,183167,14225,1924,825,324,12,10,80,0,2.832
Label 1   ,227,03/10/09,01:40:49,193893,22489,3451,1281,367,11,9,79,0,2.832
Label 1   ,228,03/10/09,01:42:49,194891,23068,3569,1315,402,14,9,78,0,2.832
Label 1   ,229,03/10/09,01:44:49,196789,25911,4214,1512,415,13,9,78,0,2.832
Label 1   ,230,03/10/09,01:46:49,195881,25143,4035,1454,413,17,9,77,0,2.832
Label 1   ,231,03/10/09,01:48:49,196480,16881,2329,989,359,11,10,78,0,2.832
Label 1   ,232,03/10/09,01:50:49,193446,20329,3108,1159,371,13,9,78,0,2.832
Label 1   ,233,03/10/09,01:52:49,168480,12069,1797,821,299,9.9,10,77,0,2.832
Label 1   ,234,03/10/09,01:54:50,194891,19675,2791,1040,335,13,9,79,0,2.832
Label 1   ,235,03/10/09,01:56:50,187652,25686,4496,1633,419,10,9,77,0,2.832
Label 1   ,236,03/10/09,01:58:50,176518,17549,2641,1013,323,12,10,77,0,2.832
Label 1   ,237,03/10/09,02:00:50,161375,12586,1879,840,285,5.7,9,77,0,2.832
Label 1   ,238,03/10/09,02:02:50,172537,19629,3241,1226,336,12,9,77,0,2.832
Label 1   ,239,03/10/09,02:04:50,162254,14889,2345,953,283,9.2,10,77,0,2.832
Label 1   ,240,03/10/09,02:06:50,168958,15709,2295,894,285,9.5,9,77,0,2.832
Label 1   ,241,03/10/09,02:08:50,173878,26775,5058,1896,394,11,9,76,0,2.832
Label 1   ,242,03/10/09,02:10:50,173519,19861,3232,1247,342,9.9,9,77,0,2.832
Label 1   ,243,03/10/09,02:12:51,192268,39385,8696,3426,602,15,9,77,0,2.832
Label 1   ,244,03/10/09,02:14:51,189010,44252,11753,5737,945,28,8,78,0,2.832
Label 1   ,245,03/10/09,02:16:51,186931,29013,6086,2473,545,17,9,77,0,2.832
Label 1   ,246,03/10/09,02:18:51,173614,13176,1830,817,357,12,10,78,0,2.832
Label 1   ,247,03/10/09,02:20:51,168637,11791,1677,764,313,14,11,80,0,2.832
Label 1   ,248,03/10/09,02:22:51,174338,14169,1972,878,370,11,10,79,0,2.832
Label 1   ,249,03/10/09,02:24:51,187608,17400,2509,1017,388,14,10,79,0,2.832
Label 1   ,250,03/10/09,02:26:51,197435,22613,3464,1294,416,14,9,79,0,2.832
Label 1   ,251,03/10/09,02:28:52,197467,27799,4677,1734,455,19,9,78,0,2.832
Label 1   ,252,03/10/09,02:30:52,194476,20425,2974,1161,344,11,10,79,0,2.832
Label 1   ,253,03/10/09,02:32:52,173951,12828,1765,814,322,8.1,12,80,0,2.832
Label 1   ,254,03/10/09,02:34:52,164961,10554,1456,742,298,7.1,11,81,0,2.832
Label 1   ,255,03/10/09,02:36:52,147915,8334,1192,624,262,5.7,12,81,0,2.832
Label 1   ,256,03/10/09,02:38:52,149387,8322,1218,634,262,6.4,12,81,0,2.832
Label 1   ,257,03/10/09,02:40:52,153119,9620,1374,679,291,9.2,11,79,0,2.832
Label 1   ,258,03/10/09,02:42:52,152196,9136,1305,634,274,6.0,11,79,0,2.832
Label 1   ,259,03/10/09,02:44:52,144648,8182,1148,608,243,3.2,12,80,0,2.832
Label 1   ,260,03/10/09,02:46:53,138458,7594,1116,599,275,7.1,12,79,0,2.832
Label 1   ,261,03/10/09,02:48:53,150192,8687,1242,671,268,6.4,11,80,0,2.832
Label 1   ,262,03/10/09,02:50:53,149197,9189,1346,650,288,13,10,78,0,2.832
Label 1   ,263,03/10/09,02:52:53,143440,9313,1267,636,260,9.2,11,77,0,2.832
Label 1   ,264,03/10/09,02:54:53,150716,10375,1425,692,285,6.4,10,78,0,2.832
Label 1   ,265,03/10/09,02:56:53,155825,12067,1709,751,317,11,10,78,0,2.832
Label 1   ,266,03/10/09,02:58:53,153270,10640,1480,670,280,12,10,78,0,2.832
Label 1   ,267,03/10/09,03:00:53,157670,12528,1746,766,307,11,9,77,0,2.832
Label 1   ,268,03/10/09,03:02:53,161968,13762,2045,866,326,8.8,10,78,0,2.832
Label 1   ,269,03/10/09,03:04:54,161859,11513,1612,752,314,7.4,11,79,0,2.832
Label 1   ,270,03/10/09,03:06:54,163659,11766,1600,741,303,12,11,79,0,2.832
Label 1   ,271,03/10/09,03:08:54,168695,14414,2071,870,325,9.5,10,78,0,2.832
Label 1   ,272,03/10/09,03:10:54,171230,18066,2790,1065,346,15,9,77,0,2.832
Label 1   ,273,03/10/09,03:12:54,176447,19824,2958,1154,380,13,9,77,0,2.832
Label 1   ,274,03/10/09,03:14:54,172795,26087,4914,1931,491,23,9,76,0,2.832
Label 1   ,275,03/10/09,03:16:54,187259,26990,4577,1671,422,20,9,77,0,2.832
Label 1   ,276,03/10/09,03:18:54,151292,9547,1273,619,283,9.5,10,76,0,2.832
Label 1   ,277,03/10/09,03:20:55,178725,23121,3759,1354,387,16,9,76,0,2.832
Label 1   ,278,03/10/09,03:22:55,163918,13122,1820,756,286,9.9,10,77,0,2.832
Label 1   ,279,03/10/09,03:24:55,168813,17654,2723,1067,360,16,9,78,0,2.832
Label 1   ,280,03/10/09,03:26:55,190318,24934,4130,1504,394,10,10,80,0,2.832
Label 1   ,281,03/10/09,03:28:55,176627,43542,11673,5256,796,26,8,76,0,2.832
Label 1   ,282,03/10/09,03:30:55,187414,29730,5528,2031,452,13,9,78,0,2.832
Label 1   ,283,03/10/09,03:32:55,182509,37083,8179,3169,543,16,8,77,0,2.832
Label 1   ,284,03/10/09,03:34:55,182788,21135,3202,1166,346,12,9,79,0,2.832
Label 1   ,285,03/10/09,03:36:55,191431,33807,6523,2358,488,12,10,79,0,2.832
Label 1   ,286,03/10/09,03:38:55,192175,33762,6628,2503,508,19,9,78,0,2.832
Label 1   ,287,03/10/09,03:40:56,169330,13021,1791,777,282,3.5,10,80,0,2.832
Label 1   ,288,03/10/09,03:42:56,167550,12679,1687,752,284,8.8,10,80,0,2.832
Label 1   ,289,03/10/09,03:44:56,161140,10716,1458,684,293,11,11,80,0,2.832
Label 1   ,290,03/10/09,03:46:56,166496,13586,1914,777,316,9.5,10,79,0,2.832
Label 1   ,291,03/10/09,03:48:56,169185,14318,2032,818,316,12,10,79,0,2.832
Label 1   ,292,03/10/09,03:50:56,158312,10993,1505,715,301,9.2,10,80,0,2.832
Label 1   ,293,03/10/09,03:52:56,158186,12270,1757,744,303,6.4,10,78,0,2.832
Label 1   ,294,03/10/09,03:54:56,148035,8872,1245,616,259,5.7,12,80,0,2.832
Label 1   ,295,03/10/09,03:56:57,141810,8277,1171,563,249,4.6,11,80,0,2.832
Label 1   ,296,03/10/09,03:58:57,137895,10204,1668,744,293,4.9,10,77,0,2.832
Label 1   ,297,03/10/09,04:00:57,165240,15992,2485,969,368,22,10,77,0,2.832
Label 1   ,298,03/10/09,04:02:57,182981,19623,2979,1115,397,18,9,78,0,2.832
Label 1   ,299,03/10/09,04:04:57,186671,26615,4609,1680,469,21,8,78,0,2.832
Label 1   ,300,03/10/09,04:06:57,177809,27741,5100,1873,442,15,8,76,0,2.832
Label 1   ,301,03/10/09,04:08:57,180587,23092,3761,1369,368,14,9,78,0,2.832
Label 1   ,302,03/10/09,04:10:57,175056,19533,2967,1094,343,11,9,79,0,2.832
Label 1   ,303,03/10/09,04:12:57,180845,25385,4330,1579,402,12,9,78,0,2.832
Label 1   ,304,03/10/09,04:14:58,178354,25240,4248,1553,397,13,8,77,0,2.832
Label 1   ,305,03/10/09,04:16:58,180420,29310,5783,2176,463,12,9,77,0,2.832
Label 1   ,306,03/10/09,04:18:58,173872,36012,8655,3467,555,20,8,76,0,2.832
Label 1   ,307,03/10/09,04:20:58,177510,31055,6700,2681,520,13,9,76,0,2.832
Label 1   ,308,03/10/09,04:22:58,166741,18974,3314,1315,357,7.8,9,78,0,2.832
Label 1   ,309,03/10/09,04:24:58,164457,20562,3713,1411,378,14,8,77,0,2.832